Time,TemperatureF,DewpointF,PressureIn,WindDirection,WindDirectionDegrees,WindSpeedMPH,WindSpeedGustMPH,Humidity,HourlyPrecipIn,Conditions,Clouds,dailyrainin,SoftwareType,DateUTC
2013-07-23 00:01:00,68.4,67.2,29.74,South,175,1.0,2.0,96,0.00,,---,0.00,VWS V13.01,2013-07-23 04:01:00,
2013-07-23 00:06:00,68.4,67.2,29.74,South,175,0.0,2.0,96,0.00,,---,0.00,VWS V13.01,2013-07-23 04:06:00,
2013-07-23 00:11:00,68.4,67.2,29.74,South,175,0.0,1.0,96,0.00,,---,0.00,VWS V13.01,2013-07-23 04:11:00,
2013-07-23 00:16:00,68.4,67.2,29.74,South,175,0.0,1.0,96,0.00,,---,0.00,VWS V13.01,2013-07-23 04:16:00,
2013-07-23 00:21:00,68.4,67.2,29.73,South,175,0.0,1.0,96,0.00,,---,0.00,VWS V13.01,2013-07-23 04:21:00,
2013-07-23 00:26:00,68.5,67.3,29.73,South,175,0.0,1.0,96,0.00,,---,0.00,VWS V13.01,2013-07-23 04:26:00,
2013-07-23 00:31:00,68.5,67.3,29.73,South,186,1.0,2.0,96,0.00,,---,0.00,VWS V13.01,2013-07-23 04:31:00,
2013-07-23 00:36:00,68.6,67.4,29.73,South,186,1.0,3.0,96,0.00,,---,0.00,VWS V13.01,2013-07-23 04:36:00,
2013-07-23 00:41:00,68.6,67.4,29.73,SSW,205,0.0,3.0,96,0.00,,---,0.00,VWS V13.01,2013-07-23 04:41:00,
2013-07-23 00:46:00,68.6,67.4,29.72,SSW,205,0.0,3.0,96,0.00,,---,0.00,VWS V13.01,2013-07-23 04:46:00,
2013-07-23 00:51:00,68.6,67.4,29.72,SSW,205,0.0,0.0,96,0.00,,---,0.00,VWS V13.01,2013-07-23 04:51:00,
2013-07-23 00:56:00,68.7,67.5,29.73,SSW,205,0.0,1.0,96,0.00,,---,0.00,VWS V13.01,2013-07-23 04:56:00,
2013-07-23 01:01:00,68.7,67.5,29.73,SSW,205,0.0,0.0,96,0.00,,---,0.00,VWS V13.01,2013-07-23 05:01:00,
2013-07-23 01:06:00,68.7,67.5,29.72,SSW,205,0.0,0.0,96,0.00,,---,0.00,VWS V13.01,2013-07-23 05:06:00,
2013-07-23 01:11:00,68.7,67.5,29.72,SSW,205,0.0,0.0,96,0.00,,---,0.00,VWS V13.01,2013-07-23 05:11:00,
2013-07-23 01:16:00,68.6,67.4,29.72,SSW,205,0.0,1.0,96,0.00,,---,0.00,VWS V13.01,2013-07-23 05:16:00,
2013-07-23 01:21:00,68.5,67.3,29.72,SSW,205,3.0,3.0,96,0.00,,---,0.00,VWS V13.01,2013-07-23 05:21:00,
2013-07-23 01:26:00,68.4,67.2,29.72,WSW,240,1.0,4.0,96,0.00,,---,0.00,VWS V13.01,2013-07-23 05:26:00,
2013-07-23 01:31:00,68.4,67.2,29.72,WSW,240,0.0,0.0,96,0.00,,---,0.00,VWS V13.01,2013-07-23 05:31:00,
2013-07-23 01:36:00,68.4,67.2,29.72,WSW,240,0.0,1.0,96,0.00,,---,0.00,VWS V13.01,2013-07-23 05:36:00,
2013-07-23 01:41:00,68.3,67.1,29.72,WSW,240,0.0,1.0,96,0.00,,---,0.00,VWS V13.01,2013-07-23 05:41:00,
2013-07-23 01:46:00,68.3,67.1,29.72,WSW,240,0.0,1.0,96,0.00,,---,0.00,VWS V13.01,2013-07-23 05:46:00,
2013-07-23 01:51:00,68.2,67.0,29.72,WSW,240,0.0,1.0,96,0.00,,---,0.00,VWS V13.01,2013-07-23 05:51:00,
2013-07-23 01:56:00,68.2,67.0,29.72,WSW,240,0.0,2.0,96,0.00,,---,0.00,VWS V13.01,2013-07-23 05:56:00,
2013-07-23 02:01:00,68.1,66.9,29.72,WSW,240,1.0,1.0,96,0.00,,---,0.00,VWS V13.01,2013-07-23 06:01:00,
2013-07-23 02:06:00,68.1,66.9,29.72,WSW,240,1.0,2.0,96,0.00,,---,0.00,VWS V13.01,2013-07-23 06:06:00,
2013-07-23 02:11:00,68.1,66.9,29.72,SW,225,4.0,4.0,96,0.00,,---,0.00,VWS V13.01,2013-07-23 06:11:00,
2013-07-23 02:16:00,68.1,66.9,29.72,SW,224,2.0,4.0,96,0.00,,---,0.00,VWS V13.01,2013-07-23 06:16:00,
2013-07-23 02:21:00,68.1,66.9,29.72,WSW,244,1.0,4.0,96,0.00,,---,0.00,VWS V13.01,2013-07-23 06:21:00,
2013-07-23 02:26:00,68.1,66.9,29.73,SW,230,0.0,4.0,96,0.00,,---,0.00,VWS V13.01,2013-07-23 06:26:00,
2013-07-23 02:31:00,68.1,66.9,29.73,SW,230,1.0,2.0,96,0.00,,---,0.00,VWS V13.01,2013-07-23 06:31:00,
2013-07-23 02:36:00,68.1,66.9,29.72,SW,230,1.0,3.0,96,0.00,,---,0.00,VWS V13.01,2013-07-23 06:36:00,
2013-07-23 02:41:00,68.2,67.0,29.72,SW,225,2.0,3.0,96,0.00,,---,0.00,VWS V13.01,2013-07-23 06:41:00,
2013-07-23 02:46:00,68.2,67.0,29.72,SW,225,2.0,3.0,96,0.00,,---,0.00,VWS V13.01,2013-07-23 06:46:00,
2013-07-23 02:51:00,68.2,67.0,29.73,SW,225,1.0,2.0,96,0.00,,---,0.00,VWS V13.01,2013-07-23 06:51:00,
2013-07-23 02:56:00,68.2,67.0,29.72,SW,225,0.0,3.0,96,0.00,,---,0.00,VWS V13.01,2013-07-23 06:56:00,
2013-07-23 03:01:00,68.2,67.0,29.72,SW,225,1.0,2.0,96,0.00,,---,0.00,VWS V13.01,2013-07-23 07:01:00,
2013-07-23 03:06:00,68.1,66.9,29.72,SSW,205,2.0,4.0,96,0.00,,---,0.00,VWS V13.01,2013-07-23 07:06:00,
2013-07-23 03:11:00,68.1,66.9,29.72,South,189,2.0,3.0,96,0.00,,---,0.00,VWS V13.01,2013-07-23 07:11:00,
2013-07-23 03:16:00,68.0,66.8,29.71,SSW,204,1.0,4.0,96,0.00,,---,0.00,VWS V13.01,2013-07-23 07:16:00,
2013-07-23 03:21:00,68.0,66.8,29.71,SSW,204,1.0,2.0,96,0.00,,---,0.00,VWS V13.01,2013-07-23 07:21:00,
2013-07-23 03:26:00,68.0,66.8,29.71,South,180,2.0,4.0,96,0.00,,---,0.00,VWS V13.01,2013-07-23 07:26:00,
2013-07-23 03:31:00,68.0,66.8,29.71,SSW,192,2.0,4.0,96,0.00,,---,0.00,VWS V13.01,2013-07-23 07:31:00,
2013-07-23 03:36:00,68.0,66.8,29.71,SSW,208,1.0,4.0,96,0.00,,---,0.00,VWS V13.01,2013-07-23 07:36:00,
2013-07-23 03:41:00,68.0,66.8,29.71,SW,214,2.0,3.0,96,0.00,,---,0.00,VWS V13.01,2013-07-23 07:41:00,
2013-07-23 03:46:00,68.1,66.9,29.71,SW,221,3.0,4.0,96,0.00,,---,0.00,VWS V13.01,2013-07-23 07:46:00,
2013-07-23 03:51:00,68.1,66.9,29.71,SSW,196,3.0,4.0,96,0.00,,---,0.00,VWS V13.01,2013-07-23 07:51:00,
2013-07-23 03:56:00,68.1,66.9,29.71,SW,227,4.0,5.0,96,0.00,,---,0.00,VWS V13.01,2013-07-23 07:56:00,
2013-07-23 04:01:00,68.1,66.9,29.71,SW,214,4.0,4.0,96,0.00,,---,0.00,VWS V13.01,2013-07-23 08:01:00,
2013-07-23 04:06:00,68.1,66.9,29.70,SW,215,3.0,4.0,96,0.00,,---,0.00,VWS V13.01,2013-07-23 08:06:00,
2013-07-23 04:11:00,68.1,66.9,29.70,SW,219,4.0,5.0,96,0.00,,---,0.00,VWS V13.01,2013-07-23 08:11:00,
2013-07-23 04:16:00,68.2,67.0,29.71,SW,217,3.0,5.0,96,0.00,,---,0.00,VWS V13.01,2013-07-23 08:16:00,
2013-07-23 04:21:00,68.2,67.0,29.71,SW,231,1.0,3.0,96,0.00,,---,0.00,VWS V13.01,2013-07-23 08:21:00,
2013-07-23 04:26:00,68.2,67.0,29.70,WSW,238,3.0,5.0,96,0.00,,---,0.00,VWS V13.01,2013-07-23 08:26:00,
2013-07-23 04:31:00,68.3,67.1,29.70,SW,229,3.0,5.0,96,0.00,,---,0.00,VWS V13.01,2013-07-23 08:31:00,
2013-07-23 04:36:00,68.3,67.1,29.70,SW,227,3.0,5.0,96,0.00,,---,0.00,VWS V13.01,2013-07-23 08:36:00,
2013-07-23 04:41:00,68.3,67.1,29.70,SSW,208,2.0,4.0,96,0.00,,---,0.00,VWS V13.01,2013-07-23 08:41:00,
2013-07-23 04:46:00,68.3,67.1,29.70,SW,227,3.0,4.0,96,0.00,,---,0.00,VWS V13.01,2013-07-23 08:46:00,
2013-07-23 04:51:00,68.4,67.2,29.70,SW,220,3.0,5.0,96,0.00,,---,0.00,VWS V13.01,2013-07-23 08:51:00,
2013-07-23 04:56:00,68.4,67.2,29.70,SW,232,5.0,5.0,96,0.00,,---,0.00,VWS V13.01,2013-07-23 08:56:00,
2013-07-23 05:01:00,68.4,67.2,29.70,SW,217,1.0,5.0,96,0.00,,---,0.00,VWS V13.01,2013-07-23 09:01:00,
2013-07-23 05:06:00,68.4,67.2,29.70,SW,236,1.0,5.0,96,0.01,,---,0.01,VWS V13.01,2013-07-23 09:06:00,
2013-07-23 05:11:00,68.4,67.2,29.70,SW,220,2.0,4.0,96,0.01,,---,0.01,VWS V13.01,2013-07-23 09:11:00,
2013-07-23 05:16:00,68.4,67.2,29.70,SW,215,2.0,4.0,96,0.01,,---,0.01,VWS V13.01,2013-07-23 09:16:00,
2013-07-23 05:21:00,68.4,67.2,29.70,SW,222,3.0,4.0,96,0.01,,---,0.01,VWS V13.01,2013-07-23 09:21:00,
2013-07-23 05:26:00,68.4,67.2,29.70,SSW,211,3.0,5.0,96,0.01,,---,0.01,VWS V13.01,2013-07-23 09:26:00,
2013-07-23 05:31:00,68.3,67.1,29.70,SSW,206,2.0,3.0,96,0.01,,---,0.01,VWS V13.01,2013-07-23 09:31:00,
2013-07-23 05:36:00,68.3,67.1,29.70,SW,225,2.0,5.0,96,0.01,,---,0.01,VWS V13.01,2013-07-23 09:36:00,
2013-07-23 05:41:00,68.3,67.1,29.70,SW,215,3.0,5.0,96,0.01,,---,0.01,VWS V13.01,2013-07-23 09:41:00,
2013-07-23 05:46:00,68.3,67.1,29.70,SW,215,4.0,6.0,96,0.01,,---,0.01,VWS V13.01,2013-07-23 09:46:00,
2013-07-23 05:51:00,68.3,67.1,29.70,SW,221,6.0,6.0,96,0.01,,---,0.01,VWS V13.01,2013-07-23 09:51:00,
2013-07-23 05:56:00,68.2,67.0,29.70,SW,227,3.0,7.0,96,0.01,,---,0.01,VWS V13.01,2013-07-23 09:56:00,
2013-07-23 06:01:00,68.1,66.9,29.70,WSW,237,2.0,5.0,96,0.01,,---,0.01,VWS V13.01,2013-07-23 10:01:00,
2013-07-23 06:06:00,68.1,66.9,29.70,SW,222,1.0,5.0,96,0.01,,---,0.01,VWS V13.01,2013-07-23 10:06:00,
2013-07-23 06:11:00,68.0,66.8,29.70,SW,222,1.0,2.0,96,0.00,,---,0.01,VWS V13.01,2013-07-23 10:11:00,
2013-07-23 06:16:00,68.1,66.9,29.71,SW,220,2.0,3.0,96,0.00,,---,0.01,VWS V13.01,2013-07-23 10:16:00,
2013-07-23 06:21:00,68.1,66.9,29.71,SW,220,1.0,2.0,96,0.00,,---,0.01,VWS V13.01,2013-07-23 10:21:00,
2013-07-23 06:26:00,68.1,66.9,29.71,SW,220,1.0,3.0,96,0.00,,---,0.01,VWS V13.01,2013-07-23 10:26:00,
2013-07-23 06:31:00,68.1,66.9,29.71,WSW,246,0.0,2.0,96,0.00,,---,0.01,VWS V13.01,2013-07-23 10:31:00,
2013-07-23 06:36:00,68.1,66.9,29.71,SW,229,3.0,5.0,96,0.00,,---,0.01,VWS V13.01,2013-07-23 10:36:00,
2013-07-23 06:41:00,68.2,67.0,29.71,SW,215,2.0,4.0,96,0.00,,---,0.01,VWS V13.01,2013-07-23 10:41:00,
2013-07-23 06:46:00,68.2,67.0,29.71,SSW,201,2.0,4.0,96,0.00,,---,0.01,VWS V13.01,2013-07-23 10:46:00,
2013-07-23 06:51:00,68.2,67.0,29.70,SSW,205,4.0,5.0,96,0.00,,---,0.01,VWS V13.01,2013-07-23 10:51:00,
2013-07-23 06:56:00,68.2,67.0,29.71,SW,234,2.0,5.0,96,0.00,,---,0.01,VWS V13.01,2013-07-23 10:56:00,
2013-07-23 07:01:00,68.3,67.1,29.71,SW,226,2.0,4.0,96,0.00,,---,0.01,VWS V13.01,2013-07-23 11:01:00,
2013-07-23 07:06:00,68.3,67.1,29.71,SW,226,3.0,5.0,96,0.00,,---,0.01,VWS V13.01,2013-07-23 11:06:00,
2013-07-23 07:11:00,68.3,67.1,29.71,SW,221,3.0,5.0,96,0.00,,---,0.01,VWS V13.01,2013-07-23 11:11:00,
2013-07-23 07:16:00,68.3,67.1,29.72,SW,230,4.0,5.0,96,0.00,,---,0.01,VWS V13.01,2013-07-23 11:16:00,
2013-07-23 07:21:00,68.2,67.0,29.71,SSW,209,3.0,5.0,96,0.00,,---,0.01,VWS V13.01,2013-07-23 11:21:00,
2013-07-23 07:26:00,68.1,66.9,29.71,SW,217,5.0,7.0,96,0.00,,---,0.01,VWS V13.01,2013-07-23 11:26:00,
2013-07-23 07:31:00,68.1,66.6,29.71,SSW,201,4.0,6.0,95,0.00,,---,0.01,VWS V13.01,2013-07-23 11:31:00,
2013-07-23 07:36:00,68.1,66.6,29.71,WSW,252,4.0,6.0,95,0.00,,---,0.01,VWS V13.01,2013-07-23 11:36:00,
2013-07-23 07:41:00,68.0,66.5,29.71,SW,234,3.0,6.0,95,0.00,,---,0.01,VWS V13.01,2013-07-23 11:41:00,
2013-07-23 07:46:00,68.0,66.5,29.72,SW,226,2.0,6.0,95,0.00,,---,0.01,VWS V13.01,2013-07-23 11:46:00,
2013-07-23 07:51:00,68.0,66.5,29.72,WSW,240,5.0,5.0,95,0.00,,---,0.01,VWS V13.01,2013-07-23 11:51:00,
2013-07-23 07:56:00,68.0,66.8,29.72,WSW,254,1.0,6.0,96,0.00,,---,0.01,VWS V13.01,2013-07-23 11:56:00,
2013-07-23 08:01:00,68.0,66.8,29.72,SW,216,6.0,8.0,96,0.00,,---,0.01,VWS V13.01,2013-07-23 12:01:00,
2013-07-23 08:06:00,67.9,66.7,29.73,WSW,238,4.0,9.0,96,0.00,,---,0.01,VWS V13.01,2013-07-23 12:06:00,
2013-07-23 08:11:00,67.9,66.7,29.73,SW,227,5.0,6.0,96,0.00,,---,0.01,VWS V13.01,2013-07-23 12:11:00,
2013-07-23 08:16:00,67.9,66.7,29.73,WNW,294,3.0,6.0,96,0.00,,---,0.01,VWS V13.01,2013-07-23 12:16:00,
2013-07-23 08:21:00,68.0,66.8,29.73,NW,317,1.0,6.0,96,0.00,,---,0.01,VWS V13.01,2013-07-23 12:21:00,
2013-07-23 08:26:00,68.0,66.8,29.73,NW,323,0.0,6.0,96,0.00,,---,0.01,VWS V13.01,2013-07-23 12:26:00,
2013-07-23 08:31:00,68.0,66.8,29.73,WSW,248,0.0,1.0,96,0.00,,---,0.01,VWS V13.01,2013-07-23 12:31:00,
2013-07-23 08:36:00,68.1,66.9,29.73,West,275,3.0,5.0,96,0.01,,---,0.02,VWS V13.01,2013-07-23 12:36:00,
2013-07-23 08:41:00,68.3,67.1,29.73,WNW,292,1.0,4.0,96,0.01,,---,0.02,VWS V13.01,2013-07-23 12:41:00,
2013-07-23 08:46:00,68.4,67.2,29.73,NW,323,1.0,6.0,96,0.01,,---,0.02,VWS V13.01,2013-07-23 12:46:00,
2013-07-23 08:51:00,68.5,67.3,29.73,WNW,301,0.0,5.0,96,0.01,,---,0.02,VWS V13.01,2013-07-23 12:51:00,
2013-07-23 08:56:00,68.7,67.5,29.74,NNW,327,2.0,5.0,96,0.01,,---,0.02,VWS V13.01,2013-07-23 12:56:00,
2013-07-23 09:01:00,68.8,67.3,29.74,West,273,3.0,4.0,95,0.01,,---,0.02,VWS V13.01,2013-07-23 13:01:00,
2013-07-23 09:06:00,68.8,67.0,29.74,West,274,3.0,8.0,94,0.01,,---,0.02,VWS V13.01,2013-07-23 13:06:00,
2013-07-23 09:11:00,68.9,67.1,29.74,WNW,292,3.0,4.0,94,0.01,,---,0.02,VWS V13.01,2013-07-23 13:11:00,
2013-07-23 09:16:00,69.0,67.2,29.74,West,272,1.0,7.0,94,0.01,,---,0.02,VWS V13.01,2013-07-23 13:16:00,
2013-07-23 09:21:00,69.0,66.9,29.74,NW,304,5.0,6.0,93,0.01,,---,0.02,VWS V13.01,2013-07-23 13:21:00,
2013-07-23 09:26:00,69.2,67.1,29.74,WSW,242,3.0,6.0,93,0.01,,---,0.02,VWS V13.01,2013-07-23 13:26:00,
2013-07-23 09:31:00,69.2,66.8,29.74,West,261,1.0,8.0,92,0.01,,---,0.02,VWS V13.01,2013-07-23 13:31:00,
2013-07-23 09:36:00,69.4,67.3,29.74,SW,232,4.0,8.0,93,0.01,,---,0.02,VWS V13.01,2013-07-23 13:36:00,
2013-07-23 09:41:00,69.5,67.4,29.74,West,264,4.0,6.0,93,0.00,,---,0.02,VWS V13.01,2013-07-23 13:41:00,
2013-07-23 09:46:00,69.4,67.0,29.73,West,273,7.0,7.0,92,0.00,,---,0.02,VWS V13.01,2013-07-23 13:46:00,
2013-07-23 09:51:00,69.4,67.0,29.74,West,263,3.0,6.0,92,0.00,,---,0.02,VWS V13.01,2013-07-23 13:51:00,
2013-07-23 09:56:00,69.3,66.9,29.74,WNW,290,4.0,7.0,92,0.00,,---,0.02,VWS V13.01,2013-07-23 13:56:00,
2013-07-23 10:01:00,69.4,67.0,29.74,WSW,256,1.0,4.0,92,0.00,,---,0.02,VWS V13.01,2013-07-23 14:01:00,
2013-07-23 10:06:00,69.4,66.7,29.74,West,280,1.0,7.0,91,0.00,,---,0.02,VWS V13.01,2013-07-23 14:06:00,
2013-07-23 10:11:00,69.5,67.1,29.74,West,279,4.0,5.0,92,0.00,,---,0.02,VWS V13.01,2013-07-23 14:11:00,
2013-07-23 10:16:00,69.7,67.0,29.74,West,268,2.0,5.0,91,0.00,,---,0.02,VWS V13.01,2013-07-23 14:16:00,
2013-07-23 10:21:00,69.7,66.6,29.74,WSW,254,2.0,4.0,90,0.00,,---,0.02,VWS V13.01,2013-07-23 14:21:00,
2013-07-23 10:26:00,69.7,67.0,29.74,SW,231,1.0,4.0,91,0.00,,---,0.02,VWS V13.01,2013-07-23 14:26:00,
2013-07-23 10:31:00,69.7,67.0,29.74,West,267,1.0,3.0,91,0.00,,---,0.02,VWS V13.01,2013-07-23 14:31:00,
2013-07-23 10:36:00,69.6,66.9,29.74,WSW,250,0.0,7.0,91,0.00,,---,0.02,VWS V13.01,2013-07-23 14:36:00,
2013-07-23 10:41:00,69.5,66.4,29.74,West,269,2.0,5.0,90,0.00,,---,0.02,VWS V13.01,2013-07-23 14:41:00,
2013-07-23 10:46:00,69.5,66.8,29.74,WNW,301,4.0,5.0,91,0.00,,---,0.02,VWS V13.01,2013-07-23 14:46:00,
2013-07-23 10:51:00,69.5,66.8,29.73,WNW,285,1.0,4.0,91,0.00,,---,0.02,VWS V13.01,2013-07-23 14:51:00,
2013-07-23 10:56:00,69.7,67.0,29.73,WSW,258,2.0,5.0,91,0.00,,---,0.02,VWS V13.01,2013-07-23 14:56:00,
2013-07-23 11:01:00,70.1,67.7,29.73,WNW,293,3.0,3.0,92,0.00,,---,0.02,VWS V13.01,2013-07-23 15:01:00,
2013-07-23 11:06:00,70.5,67.4,29.73,SW,225,2.0,6.0,90,0.00,,---,0.02,VWS V13.01,2013-07-23 15:06:00,
2013-07-23 11:11:00,71.0,67.9,29.73,West,262,5.0,7.0,90,0.00,,---,0.02,VWS V13.01,2013-07-23 15:11:00,
2013-07-23 11:16:00,71.3,67.6,29.73,NW,309,4.0,7.0,88,0.00,,---,0.02,VWS V13.01,2013-07-23 15:16:00,
2013-07-23 11:21:00,71.8,68.1,29.73,West,263,2.0,4.0,88,0.00,,---,0.02,VWS V13.01,2013-07-23 15:21:00,
2013-07-23 11:26:00,72.5,68.4,29.73,SSW,210,3.0,5.0,87,0.00,,---,0.02,VWS V13.01,2013-07-23 15:26:00,
2013-07-23 11:31:00,72.9,68.5,29.73,WSW,251,4.0,6.0,86,0.00,,---,0.02,VWS V13.01,2013-07-23 15:31:00,
2013-07-23 11:36:00,73.0,68.2,29.73,West,272,5.0,8.0,85,0.00,,---,0.02,VWS V13.01,2013-07-23 15:36:00,
2013-07-23 11:41:00,73.0,67.9,29.73,SW,221,1.0,8.0,84,0.00,,---,0.02,VWS V13.01,2013-07-23 15:41:00,
2013-07-23 11:46:00,73.1,68.0,29.73,West,276,0.0,8.0,84,0.00,,---,0.02,VWS V13.01,2013-07-23 15:46:00,
2013-07-23 11:51:00,73.1,67.3,29.74,West,260,1.0,7.0,82,0.00,,---,0.02,VWS V13.01,2013-07-23 15:51:00,
2013-07-23 11:56:00,73.1,68.0,29.74,SW,229,7.0,9.0,84,0.00,,---,0.02,VWS V13.01,2013-07-23 15:56:00,
2013-07-23 12:01:00,73.1,68.0,29.74,West,274,2.0,7.0,84,0.00,,---,0.02,VWS V13.01,2013-07-23 16:01:00,
2013-07-23 12:06:00,73.2,68.1,29.74,WSW,238,4.0,8.0,84,0.00,,---,0.02,VWS V13.01,2013-07-23 16:06:00,
2013-07-23 12:11:00,73.5,68.0,29.74,WSW,254,3.0,7.0,83,0.00,,---,0.02,VWS V13.01,2013-07-23 16:11:00,
2013-07-23 12:16:00,73.7,67.5,29.74,West,261,5.0,7.0,81,0.00,,---,0.02,VWS V13.01,2013-07-23 16:16:00,
2013-07-23 12:21:00,74.0,68.2,29.74,WSW,250,2.0,6.0,82,0.00,,---,0.02,VWS V13.01,2013-07-23 16:21:00,
2013-07-23 12:26:00,74.3,68.8,29.74,West,274,3.0,6.0,83,0.00,,---,0.02,VWS V13.01,2013-07-23 16:26:00,
2013-07-23 12:31:00,74.5,68.3,29.74,SSW,202,5.0,7.0,81,0.00,,---,0.02,VWS V13.01,2013-07-23 16:31:00,
2013-07-23 12:36:00,74.7,69.2,29.74,WSW,253,8.0,10.0,83,0.00,,---,0.02,VWS V13.01,2013-07-23 16:36:00,
2013-07-23 12:41:00,75.0,68.8,29.74,WSW,254,2.0,7.0,81,0.00,,---,0.02,VWS V13.01,2013-07-23 16:41:00,
2013-07-23 12:46:00,75.5,68.5,29.73,SW,219,3.0,7.0,79,0.00,,---,0.02,VWS V13.01,2013-07-23 16:46:00,
2013-07-23 12:51:00,75.7,69.1,29.73,SW,232,1.0,7.0,80,0.00,,---,0.02,VWS V13.01,2013-07-23 16:51:00,
2013-07-23 12:56:00,76.4,69.4,29.73,West,270,2.0,7.0,79,0.00,,---,0.02,VWS V13.01,2013-07-23 16:56:00,
2013-07-23 13:01:00,76.7,68.6,29.73,West,278,0.0,5.0,76,0.00,,---,0.02,VWS V13.01,2013-07-23 17:01:00,
2013-07-23 13:06:00,76.7,68.6,29.73,SSW,200,3.0,8.0,76,0.00,,---,0.02,VWS V13.01,2013-07-23 17:06:00,
2013-07-23 13:11:00,76.7,68.9,29.73,West,273,0.0,6.0,77,0.00,,---,0.02,VWS V13.01,2013-07-23 17:11:00,
2013-07-23 13:16:00,76.9,69.5,29.73,WSW,253,2.0,7.0,78,0.00,,---,0.02,VWS V13.01,2013-07-23 17:16:00,
2013-07-23 13:21:00,77.3,69.5,29.73,West,260,3.0,6.0,77,0.00,,---,0.02,VWS V13.01,2013-07-23 17:21:00,
2013-07-23 13:26:00,77.5,69.0,29.73,West,276,4.0,7.0,75,0.00,,---,0.02,VWS V13.01,2013-07-23 17:26:00,
2013-07-23 13:31:00,77.9,69.7,29.73,West,269,3.0,9.0,76,0.00,,---,0.02,VWS V13.01,2013-07-23 17:31:00,
2013-07-23 13:36:00,78.1,69.1,29.73,WSW,256,5.0,9.0,74,0.00,,---,0.02,VWS V13.01,2013-07-23 17:36:00,
2013-07-23 13:41:00,78.1,69.9,29.74,WSW,257,6.0,9.0,76,0.00,,---,0.02,VWS V13.01,2013-07-23 17:41:00,
2013-07-23 13:46:00,78.0,69.4,29.73,SW,232,3.0,9.0,75,0.00,,---,0.02,VWS V13.01,2013-07-23 17:46:00,
2013-07-23 13:51:00,78.0,69.4,29.73,West,277,3.0,7.0,75,0.00,,---,0.02,VWS V13.01,2013-07-23 17:51:00,
2013-07-23 13:56:00,78.5,69.5,29.73,SSW,211,7.0,10.0,74,0.00,,---,0.02,VWS V13.01,2013-07-23 17:56:00,
2013-07-23 14:01:00,79.1,68.9,29.73,WSW,249,5.0,12.0,71,0.00,,---,0.02,VWS V13.01,2013-07-23 18:01:00,
2013-07-23 14:06:00,79.4,69.6,29.72,WSW,251,4.0,12.0,72,0.00,,---,0.02,VWS V13.01,2013-07-23 18:06:00,
2013-07-23 14:11:00,79.3,68.3,29.72,West,263,2.0,7.0,69,0.00,,---,0.02,VWS V13.01,2013-07-23 18:11:00,
2013-07-23 14:16:00,79.3,68.7,29.72,SW,219,11.0,11.0,70,0.00,,---,0.02,VWS V13.01,2013-07-23 18:16:00,
2013-07-23 14:21:00,79.1,68.1,29.72,West,273,7.0,11.0,69,0.00,,---,0.02,VWS V13.01,2013-07-23 18:21:00,
2013-07-23 14:26:00,79.1,68.5,29.72,South,188,7.0,11.0,70,0.00,,---,0.02,VWS V13.01,2013-07-23 18:26:00,
2013-07-23 14:31:00,79.3,68.3,29.72,WSW,238,6.0,10.0,69,0.00,,---,0.02,VWS V13.01,2013-07-23 18:31:00,
2013-07-23 14:37:00,79.4,68.3,29.71,SW,215,8.0,10.0,69,0.00,,---,0.02,VWS V13.01,2013-07-23 18:37:00,
2013-07-23 14:42:00,79.6,68.1,29.71,WSW,250,1.0,8.0,68,0.00,,---,0.02,VWS V13.01,2013-07-23 18:42:00,
2013-07-23 14:47:00,80.1,68.6,29.71,WNW,296,2.0,9.0,68,0.00,,---,0.02,VWS V13.01,2013-07-23 18:47:00,
2013-07-23 14:52:00,80.2,69.1,29.71,West,272,2.0,8.0,69,0.00,,---,0.02,VWS V13.01,2013-07-23 18:52:00,
2013-07-23 14:57:00,80.3,70.1,29.70,SW,232,3.0,8.0,71,0.00,,---,0.02,VWS V13.01,2013-07-23 18:57:00,
2013-07-23 15:02:00,80.3,68.8,29.70,SW,230,1.0,7.0,68,0.00,,---,0.02,VWS V13.01,2013-07-23 19:02:00,
2013-07-23 15:07:00,80.3,68.8,29.71,SSW,208,5.0,10.0,68,0.00,,---,0.02,VWS V13.01,2013-07-23 19:07:00,
2013-07-23 15:12:00,80.4,68.9,29.71,SW,215,5.0,8.0,68,0.00,,---,0.02,VWS V13.01,2013-07-23 19:12:00,
2013-07-23 15:17:00,80.2,68.7,29.70,SW,221,4.0,9.0,68,0.00,,---,0.02,VWS V13.01,2013-07-23 19:17:00,
2013-07-23 15:22:00,80.1,69.0,29.70,SW,236,7.0,7.0,69,0.00,,---,0.02,VWS V13.01,2013-07-23 19:22:00,
2013-07-23 15:27:00,80.7,69.6,29.70,SSW,205,6.0,11.0,69,0.00,,---,0.02,VWS V13.01,2013-07-23 19:27:00,
2013-07-23 15:32:00,81.0,69.0,29.69,WSW,241,2.0,8.0,67,0.00,,---,0.02,VWS V13.01,2013-07-23 19:32:00,
2013-07-23 15:37:00,81.6,69.2,29.69,SW,219,6.0,12.0,66,0.00,,---,0.02,VWS V13.01,2013-07-23 19:37:00,
2013-07-23 15:42:00,81.9,69.4,29.69,SW,229,6.0,13.0,66,0.00,,---,0.02,VWS V13.01,2013-07-23 19:42:00,
2013-07-23 15:48:00,81.4,69.0,29.69,SSE,156,6.0,13.0,66,0.00,,---,0.02,VWS V13.01,2013-07-23 19:48:00,
2013-07-23 15:53:00,81.1,67.8,29.68,WSW,240,8.0,13.0,64,0.00,,---,0.02,VWS V13.01,2013-07-23 19:53:00,
2013-07-23 15:58:00,81.0,68.1,29.68,WSW,250,4.0,13.0,65,0.00,,---,0.02,VWS V13.01,2013-07-23 19:58:00,
2013-07-23 16:03:00,81.6,69.2,29.68,SSW,210,6.0,9.0,66,0.00,,---,0.02,VWS V13.01,2013-07-23 20:03:00,
2013-07-23 16:08:00,82.1,69.2,29.68,SW,232,9.0,11.0,65,0.00,,---,0.02,VWS V13.01,2013-07-23 20:08:00,
2013-07-23 16:13:00,81.6,68.2,29.68,WSW,251,3.0,11.0,64,0.00,,---,0.02,VWS V13.01,2013-07-23 20:13:00,
2013-07-23 16:18:00,81.7,69.7,29.68,WSW,240,8.0,13.0,67,0.00,,---,0.02,VWS V13.01,2013-07-23 20:18:00,
2013-07-23 16:23:00,81.8,68.4,29.67,WSW,254,8.0,10.0,64,0.00,,---,0.02,VWS V13.01,2013-07-23 20:23:00,
2013-07-23 16:29:00,81.9,69.4,29.67,WSW,258,5.0,10.0,66,0.00,,---,0.02,VWS V13.01,2013-07-23 20:29:00,
2013-07-23 16:34:00,81.6,68.2,29.67,SW,224,5.0,12.0,64,0.00,,---,0.02,VWS V13.01,2013-07-23 20:34:00,
2013-07-23 16:39:00,81.1,68.7,29.67,SW,232,4.0,12.0,66,0.00,,---,0.02,VWS V13.01,2013-07-23 20:39:00,
2013-07-23 16:44:00,80.8,68.8,29.67,WSW,250,3.0,10.0,67,0.00,,---,0.02,VWS V13.01,2013-07-23 20:44:00,
2013-07-23 16:49:00,81.2,69.2,29.67,West,271,10.0,11.0,67,0.00,,---,0.02,VWS V13.01,2013-07-23 20:49:00,
2013-07-23 16:54:00,81.6,68.7,29.67,SW,229,6.0,11.0,65,0.00,,---,0.02,VWS V13.01,2013-07-23 20:54:00,
2013-07-23 16:59:00,82.2,68.8,29.67,SW,214,7.0,12.0,64,0.00,,---,0.02,VWS V13.01,2013-07-23 20:59:00,
2013-07-23 17:04:00,82.3,69.4,29.67,WSW,252,2.0,10.0,65,0.00,,---,0.02,VWS V13.01,2013-07-23 21:04:00,
2013-07-23 17:09:00,82.5,69.6,29.67,WSW,237,3.0,11.0,65,0.00,,---,0.02,VWS V13.01,2013-07-23 21:09:00,
2013-07-23 17:14:00,82.9,69.5,29.67,West,278,3.0,9.0,64,0.00,,---,0.02,VWS V13.01,2013-07-23 21:14:00,
2013-07-23 17:19:00,83.3,69.4,29.67,SW,217,2.0,10.0,63,0.00,,---,0.02,VWS V13.01,2013-07-23 21:19:00,
2013-07-23 17:24:00,83.4,68.6,29.67,WSW,249,10.0,13.0,61,0.00,,---,0.02,VWS V13.01,2013-07-23 21:24:00,
2013-07-23 17:29:00,83.3,69.4,29.67,West,278,6.0,13.0,63,0.00,,---,0.02,VWS V13.01,2013-07-23 21:29:00,
2013-07-23 17:34:00,83.1,67.3,29.67,West,259,3.0,12.0,59,0.00,,---,0.02,VWS V13.01,2013-07-23 21:34:00,
2013-07-23 17:39:00,82.9,66.6,29.67,West,271,4.0,12.0,58,0.00,,---,0.02,VWS V13.01,2013-07-23 21:39:00,
2013-07-23 17:44:00,83.0,66.2,29.68,West,267,8.0,14.0,57,0.00,,---,0.02,VWS V13.01,2013-07-23 21:44:00,
2013-07-23 17:49:00,83.0,66.2,29.67,WSW,251,4.0,14.0,57,0.00,,---,0.02,VWS V13.01,2013-07-23 21:49:00,
2013-07-23 17:54:00,83.2,66.9,29.68,West,261,7.0,10.0,58,0.00,,---,0.02,VWS V13.01,2013-07-23 21:54:00,
2013-07-23 17:59:00,83.4,67.6,29.67,SW,229,5.0,12.0,59,0.00,,---,0.02,VWS V13.01,2013-07-23 21:59:00,
2013-07-23 18:04:00,83.4,66.6,29.67,SW,221,4.0,10.0,57,0.00,,---,0.02,VWS V13.01,2013-07-23 22:04:00,
2013-07-23 18:09:00,83.3,67.5,29.67,WSW,242,6.0,12.0,59,0.00,,---,0.02,VWS V13.01,2013-07-23 22:09:00,
2013-07-23 18:14:00,83.0,67.2,29.67,West,270,5.0,9.0,59,0.00,,---,0.02,VWS V13.01,2013-07-23 22:14:00,
2013-07-23 18:19:00,82.2,66.9,29.67,SW,236,9.0,9.0,60,0.00,,---,0.02,VWS V13.01,2013-07-23 22:19:00,
2013-07-23 18:24:00,81.4,66.7,29.67,SW,231,8.0,10.0,61,0.00,,---,0.02,VWS V13.01,2013-07-23 22:24:00,
2013-07-23 18:29:00,80.9,66.7,29.67,WSW,244,3.0,10.0,62,0.00,,---,0.02,VWS V13.01,2013-07-23 22:29:00,
2013-07-23 18:34:00,80.6,66.8,29.67,WSW,246,5.0,9.0,63,0.00,,---,0.02,VWS V13.01,2013-07-23 22:34:00,
2013-07-23 18:39:00,80.4,67.1,29.67,WSW,257,9.0,9.0,64,0.00,,---,0.02,VWS V13.01,2013-07-23 22:39:00,
2013-07-23 18:44:00,80.1,66.4,29.66,West,278,3.0,9.0,63,0.00,,---,0.02,VWS V13.01,2013-07-23 22:44:00,
2013-07-23 18:49:00,79.8,66.1,29.66,WSW,253,2.0,3.0,63,0.00,,---,0.02,VWS V13.01,2013-07-23 22:49:00,
2013-07-23 18:54:00,79.6,66.4,29.67,WSW,240,3.0,7.0,64,0.00,,---,0.02,VWS V13.01,2013-07-23 22:54:00,
2013-07-23 18:59:00,79.4,66.6,29.67,WSW,250,4.0,5.0,65,0.00,,---,0.02,VWS V13.01,2013-07-23 22:59:00,
2013-07-23 19:04:00,79.2,66.4,29.67,WSW,254,4.0,7.0,65,0.00,,---,0.02,VWS V13.01,2013-07-23 23:04:00,
2013-07-23 19:09:00,79.0,66.2,29.67,WNW,283,3.0,3.0,65,0.00,,---,0.02,VWS V13.01,2013-07-23 23:09:00,
2013-07-23 19:14:00,78.9,66.6,29.66,SW,229,3.0,4.0,66,0.00,,---,0.02,VWS V13.01,2013-07-23 23:14:00,
2013-07-23 19:19:00,78.6,66.7,29.66,SSW,213,5.0,5.0,67,0.00,,---,0.02,VWS V13.01,2013-07-23 23:19:00,
2013-07-23 19:24:00,78.5,67.1,29.67,West,269,1.0,5.0,68,0.00,,---,0.02,VWS V13.01,2013-07-23 23:24:00,
2013-07-23 19:29:00,78.2,68.0,29.66,South,186,2.0,2.0,71,0.01,,---,0.03,VWS V13.01,2013-07-23 23:29:00,
2013-07-23 19:34:00,77.7,69.5,29.67,WNW,285,1.0,3.0,76,0.01,,---,0.03,VWS V13.01,2013-07-23 23:34:00,
2013-07-23 19:39:00,76.8,69.4,29.67,SSW,207,4.0,5.0,78,0.02,,---,0.04,VWS V13.01,2013-07-23 23:39:00,
2013-07-23 19:44:00,75.9,68.6,29.66,SSW,198,6.0,9.0,78,0.02,,---,0.04,VWS V13.01,2013-07-23 23:44:00,
2013-07-23 19:50:00,75.2,68.2,29.66,SSW,198,6.0,6.0,79,0.02,,---,0.04,VWS V13.01,2013-07-23 23:50:00,
2013-07-23 19:55:00,74.5,67.6,29.67,SW,221,6.0,13.0,79,0.02,,---,0.04,VWS V13.01,2013-07-23 23:55:00,
2013-07-23 20:00:00,73.5,67.0,29.67,WSW,242,4.0,7.0,80,0.02,,---,0.04,VWS V13.01,2013-07-24 00:00:00,
2013-07-23 20:05:00,72.5,66.3,29.68,WSW,240,7.0,10.0,81,0.02,,---,0.04,VWS V13.01,2013-07-24 00:05:00,
2013-07-23 20:10:00,71.5,64.3,29.68,SSW,211,6.0,6.0,78,0.02,,---,0.04,VWS V13.01,2013-07-24 00:10:00,
2013-07-23 20:15:00,70.7,63.9,29.68,SSW,192,8.0,11.0,79,0.02,,---,0.04,VWS V13.01,2013-07-24 00:15:00,
2013-07-23 20:20:00,70.2,63.8,29.68,SW,227,6.0,9.0,80,0.02,,---,0.04,VWS V13.01,2013-07-24 00:20:00,
2013-07-23 20:25:00,69.7,63.3,29.69,SSW,209,7.0,12.0,80,0.02,,---,0.04,VWS V13.01,2013-07-24 00:25:00,
2013-07-23 20:30:00,69.3,63.2,29.69,SSW,198,5.0,9.0,81,0.02,,---,0.04,VWS V13.01,2013-07-24 00:30:00,
2013-07-23 20:35:00,68.9,63.2,29.69,South,184,9.0,10.0,82,0.01,,---,0.04,VWS V13.01,2013-07-24 00:35:00,
2013-07-23 20:40:00,68.6,62.9,29.68,SW,229,7.0,9.0,82,0.01,,---,0.04,VWS V13.01,2013-07-24 00:40:00,
2013-07-23 20:45:00,68.2,62.8,29.68,SSW,196,6.0,14.0,83,0.00,,---,0.04,VWS V13.01,2013-07-24 00:45:00,
2013-07-23 20:50:00,67.9,62.9,29.69,SW,230,6.0,8.0,84,0.00,,---,0.04,VWS V13.01,2013-07-24 00:50:00,
2013-07-23 20:55:00,67.6,62.9,29.68,South,189,7.0,13.0,85,0.00,,---,0.04,VWS V13.01,2013-07-24 00:55:00,
2013-07-23 21:00:00,67.4,63.1,29.68,SSW,201,8.0,10.0,86,0.00,,---,0.04,VWS V13.01,2013-07-24 01:00:00,
2013-07-23 21:05:00,67.2,62.9,29.68,SW,230,4.0,10.0,86,0.00,,---,0.04,VWS V13.01,2013-07-24 01:05:00,
2013-07-23 21:10:00,67.0,62.7,29.68,SW,231,8.0,8.0,86,0.00,,---,0.04,VWS V13.01,2013-07-24 01:10:00,
2013-07-23 21:16:00,66.8,62.5,29.69,SW,236,1.0,8.0,86,0.00,,---,0.04,VWS V13.01,2013-07-24 01:16:00,
2013-07-23 21:21:00,66.7,62.7,29.69,WSW,240,4.0,9.0,87,0.00,,---,0.04,VWS V13.01,2013-07-24 01:21:00,
2013-07-23 21:26:00,66.7,62.7,29.69,SSW,194,5.0,9.0,87,0.00,,---,0.04,VWS V13.01,2013-07-24 01:26:00,
2013-07-23 21:31:00,66.7,62.7,29.69,SW,236,0.0,3.0,87,0.00,,---,0.04,VWS V13.01,2013-07-24 01:31:00,
2013-07-23 21:36:00,66.7,63.0,29.69,SW,236,4.0,8.0,88,0.00,,---,0.04,VWS V13.01,2013-07-24 01:36:00,
2013-07-23 21:41:00,66.7,63.0,29.69,SW,224,2.0,4.0,88,0.00,,---,0.04,VWS V13.01,2013-07-24 01:41:00,
2013-07-23 21:46:00,66.7,63.0,29.68,SW,216,0.0,4.0,88,0.00,,---,0.04,VWS V13.01,2013-07-24 01:46:00,
2013-07-23 21:51:00,66.6,62.9,29.68,WSW,254,2.0,2.0,88,0.00,,---,0.04,VWS V13.01,2013-07-24 01:51:00,
2013-07-23 21:56:00,66.5,63.2,29.68,WSW,256,2.0,3.0,89,0.00,,---,0.04,VWS V13.01,2013-07-24 01:56:00,
2013-07-23 22:01:00,66.5,63.2,29.68,West,275,0.0,3.0,89,0.00,,---,0.04,VWS V13.01,2013-07-24 02:01:00,
2013-07-23 22:06:00,66.3,63.0,29.68,West,273,1.0,3.0,89,0.00,,---,0.04,VWS V13.01,2013-07-24 02:06:00,
2013-07-23 22:11:00,66.3,63.0,29.68,West,271,1.0,2.0,89,0.00,,---,0.04,VWS V13.01,2013-07-24 02:11:00,
2013-07-23 22:16:00,66.2,63.2,29.69,West,271,0.0,2.0,90,0.00,,---,0.04,VWS V13.01,2013-07-24 02:16:00,
2013-07-23 22:21:00,66.2,63.2,29.69,West,270,1.0,2.0,90,0.00,,---,0.04,VWS V13.01,2013-07-24 02:21:00,
2013-07-23 22:26:00,66.2,63.2,29.69,West,270,0.0,2.0,90,0.00,,---,0.04,VWS V13.01,2013-07-24 02:26:00,
2013-07-23 22:31:00,66.1,63.1,29.69,West,270,0.0,1.0,90,0.00,,---,0.04,VWS V13.01,2013-07-24 02:31:00,
2013-07-23 22:37:00,66.0,63.0,29.69,West,270,0.0,1.0,90,0.00,,---,0.04,VWS V13.01,2013-07-24 02:37:00,
2013-07-23 22:42:00,65.9,63.2,29.69,West,270,0.0,1.0,91,0.00,,---,0.04,VWS V13.01,2013-07-24 02:42:00,
2013-07-23 22:46:00,65.8,63.1,29.70,West,270,0.0,1.0,91,0.00,,---,0.04,VWS V13.01,2013-07-24 02:46:00,
2013-07-23 22:51:00,65.7,63.0,29.70,West,270,0.0,0.0,91,0.00,,---,0.04,VWS V13.01,2013-07-24 02:51:00,
2013-07-23 22:57:00,65.6,62.9,29.70,West,270,0.0,0.0,91,0.00,,---,0.04,VWS V13.01,2013-07-24 02:57:00,
2013-07-23 23:02:00,65.5,62.8,29.70,West,270,0.0,1.0,91,0.00,,---,0.04,VWS V13.01,2013-07-24 03:02:00,
2013-07-23 23:07:00,65.5,63.1,29.70,West,270,0.0,2.0,92,0.00,,---,0.04,VWS V13.01,2013-07-24 03:07:00,
2013-07-23 23:12:00,65.5,63.1,29.70,WSW,252,2.0,3.0,92,0.00,,---,0.04,VWS V13.01,2013-07-24 03:12:00,
2013-07-23 23:17:00,65.5,63.1,29.70,SSW,192,4.0,4.0,92,0.00,,---,0.04,VWS V13.01,2013-07-24 03:17:00,
2013-07-23 23:22:00,65.5,63.1,29.70,SW,217,1.0,4.0,92,0.00,,---,0.04,VWS V13.01,2013-07-24 03:22:00,
2013-07-23 23:27:00,65.6,63.2,29.71,SW,225,0.0,4.0,92,0.00,,---,0.04,VWS V13.01,2013-07-24 03:27:00,
2013-07-23 23:32:00,65.5,63.1,29.71,SW,225,0.0,0.0,92,0.00,,---,0.04,VWS V13.01,2013-07-24 03:32:00,
2013-07-23 23:38:00,65.3,62.9,29.72,SW,225,0.0,0.0,92,0.00,,---,0.04,VWS V13.01,2013-07-24 03:38:00,
2013-07-23 23:43:00,65.2,62.8,29.72,SW,225,0.0,0.0,92,0.00,,---,0.04,VWS V13.01,2013-07-24 03:43:00,
2013-07-23 23:48:00,65.1,62.7,29.71,SW,225,0.0,0.0,92,0.00,,---,0.04,VWS V13.01,2013-07-24 03:48:00,
2013-07-23 23:53:00,65.0,62.9,29.71,SW,225,0.0,0.0,93,0.00,,---,0.04,VWS V13.01,2013-07-24 03:53:00,
2013-07-23 23:58:00,64.9,62.8,29.72,SW,225,0.0,0.0,93,0.00,,---,0.04,VWS V13.01,2013-07-24 03:58:00,